Terug naar catalogus

STARLINK-31373

ActiefCommunicatieVLEO
NORAD 58965·PAYLOAD·🇺🇸 United States

Gelanceerd Feb 15, 2024 vanaf Vandenberg Space Force Base

Loading…

Volgende Passages (komende 24 uur)

TLE

VersSource: CelesTrak SupGP

Epoch: Sep 14, 2026, 21:10 UTC

1 58965C 24031A   26257.88243056 -.00048055  00000+0 -14197-2 0  2575
2 58965  53.1564 135.6998 0001359  98.6430 155.7772 15.34417491    12

Volg STARLINK-31373 in realtime met AllMySat

Download on the App Store